Waupaca, WI

6:50 PM CDT on March 26, 2017 (GMT -0500)
Waupaca Municipal

Weather History for KPCZ - November, 2010

Change the Weather History Date:

Saturday, November 6, 2010

  Actual Average Record
Temperature  
Mean Temperature 37 °F -  
Max Temperature 51 °F 45 °F 72 °F (2016)
Min Temperature 23 °F 28 °F -6 °F (1951)
Degree Days  
Heating Degree Days 28    
Moisture  
Dew Point 20 °F    
Average Humidity 56    
Maximum Humidity 85    
Minimum Humidity 27    
Precipitation  
Precipitation 0.00 in - - ()
Sea Level Pressure  
Sea Level Pressure 30.21 in    
Wind  
Wind Speed 3 mph (SSW)    
Max Wind Speed 15 mph    
Max Gust Speed 18 mph    
Visibility 10 miles    
Events      
Averages and records for this station are not official NWS values.
T = Trace of Precipitation, MM = Missing Value Source: NWS Daily Summary

Daily Weather History Graph

Daily Weather History Graph

Search for Another Location

Airport or City:

Trip Planner

Search our weather history database for the weather conditions in past years. The results will help you decide how hot, cold, wet, or windy it might be!

Date:

Astronomy

Nov. 06, 2010 Rise Set
Actual Time 7:39 AM CDT 5:38 PM CDT
Civil Twilight 7:09 AM CDT 6:09 PM CDT
Nautical Twilight 6:34 AM CDT 6:44 PM CDT
Astronomical Twilight 6:00 AM CDT 7:17 PM CDT
Moon 8:21 AM CDT (11/6) 5:41 PM CDT (11/6)
Length of Visible Light 11h 00m
Length of Day
9h 59m
New Moon, 0% of the Moon is Illuminated
Nov 6
New Moon
Nov 13
First Quarter
Nov 21
Full
Nov 28
Last Quarter
Dec 5
New

Hourly Weather History & Observations

Time (CDT) Temp. Windchill Dew Point Humidity Pressure Visibility Wind Dir Wind Speed Gust Speed Precip Events Conditions
12:16 AM 23.9 °F - 17.1 °F 75% 30.17 in 10.0 mi Calm Calm - N/A   Clear
12:36 AM 23.9 °F - 17.1 °F 75% 30.17 in 10.0 mi Calm Calm - N/A   Clear
12:56 AM 24.3 °F - 17.2 °F 75% 30.18 in 10.0 mi Calm Calm - N/A   Clear
1:16 AM 24.1 °F - 17.6 °F 76% 30.18 in 10.0 mi Calm Calm - N/A   Clear
1:36 AM 24.3 °F - 18.0 °F 77% 30.18 in 10.0 mi Calm Calm - N/A   Clear
1:56 AM 23.7 °F - 18.7 °F 81% 30.18 in 10.0 mi Calm Calm - N/A   Clear
2:16 AM 23.0 °F - 19.0 °F 85% 30.18 in 10.0 mi Calm Calm - N/A   Clear
2:36 AM 23.4 °F - 18.7 °F 82% 30.19 in 10.0 mi Calm Calm - N/A   Scattered Clouds
2:56 AM 24.1 °F - 19.0 °F 81% 30.19 in 10.0 mi Calm Calm - N/A   Overcast
3:16 AM 24.8 °F - 19.9 °F 82% 30.19 in 10.0 mi Calm Calm - N/A   Overcast
3:36 AM 25.7 °F - 20.3 °F 80% 30.19 in 10.0 mi Calm Calm - N/A   Overcast
3:56 AM 26.6 °F - 21.2 °F 80% 30.19 in 10.0 mi Calm Calm - N/A   Mostly Cloudy
4:16 AM 27.1 °F - 21.9 °F 81% 30.19 in 10.0 mi Calm Calm - N/A   Scattered Clouds
4:36 AM 27.5 °F - 21.0 °F 77% 30.20 in 10.0 mi Calm Calm - N/A   Clear
4:56 AM 27.9 °F - 22.1 °F 79% 30.21 in 10.0 mi Calm Calm - N/A   Clear
5:16 AM 28.4 °F - 23.0 °F 80% 30.22 in 10.0 mi Calm Calm - N/A   Clear
5:36 AM 28.9 °F - 22.1 °F 76% 30.23 in 10.0 mi Calm Calm - N/A   Clear
5:56 AM 29.1 °F - 22.8 °F 77% 30.23 in 10.0 mi Calm Calm - N/A   Clear
6:16 AM 29.1 °F - 22.1 °F 75% 30.24 in 10.0 mi Calm Calm - N/A   Clear
6:36 AM 29.3 °F - 22.8 °F 77% 30.25 in 10.0 mi Calm Calm - N/A   Clear
6:56 AM 29.3 °F - 23.5 °F 79% 30.25 in 10.0 mi Calm Calm - N/A   Clear
7:16 AM 28.9 °F - 23.2 °F 79% 30.25 in 10.0 mi Calm Calm - N/A   Clear
7:36 AM 28.2 °F - 22.5 °F 79% 30.26 in 10.0 mi Calm Calm - N/A   Clear
7:56 AM 26.6 °F - 21.7 °F 82% 30.25 in 10.0 mi Calm Calm - N/A   Clear
8:16 AM 26.4 °F - 21.9 °F 83% 30.26 in 10.0 mi Calm Calm - N/A   Clear
8:36 AM 28.4 °F - 23.9 °F 83% 30.26 in 10.0 mi Calm Calm - N/A   Clear
8:56 AM 30.9 °F - 24.3 °F 76% 30.26 in 10.0 mi Calm Calm - N/A   Clear
9:16 AM 32.4 °F - 23.0 °F 68% 30.26 in 10.0 mi Calm Calm - N/A   Clear
9:36 AM 34.9 °F 30.8 °F 23.7 °F 64% 30.26 in 10.0 mi South 4.6 mph - N/A   Clear
9:56 AM 36.9 °F 34.3 °F 23.5 °F 59% 30.26 in 10.0 mi SSE 3.5 mph - N/A   Clear
10:16 AM 40.8 °F 36.2 °F 21.4 °F 46% 30.26 in 10.0 mi SSW 6.9 mph - N/A   Clear
10:36 AM 42.6 °F 36.8 °F 20.1 °F 41% 30.26 in 10.0 mi SSW 10.4 mph - N/A   Clear
10:56 AM 43.7 °F 38.1 °F 18.1 °F 36% 30.26 in 10.0 mi SSW 10.4 mph - N/A   Clear
11:16 AM 45.1 °F 40.8 °F 17.4 °F 33% 30.26 in 10.0 mi SSW 8.1 mph - N/A   Clear
11:36 AM 45.9 °F 41.2 °F 16.5 °F 31% 30.26 in 10.0 mi South 9.2 mph - N/A   Clear
11:56 AM 47.1 °F - 16.2 °F 29% 30.26 in 10.0 mi SW 10.4 mph - N/A   Clear
12:16 PM 47.7 °F - 16.7 °F 29% 30.24 in 10.0 mi South 12.7 mph - N/A   Clear
12:36 PM 48.2 °F - 16.5 °F 28% 30.23 in 10.0 mi SSW 11.5 mph 16.1 mph N/A   Clear
12:56 PM 48.7 °F - 16.5 °F 28% 30.23 in 10.0 mi SSW 9.2 mph 18.4 mph N/A   Clear
1:16 PM 50.0 °F - 16.9 °F 27% 30.23 in 10.0 mi South 12.7 mph - N/A   Clear
1:36 PM 50.0 °F - 17.2 °F 27% 30.22 in 10.0 mi SSW 13.8 mph 18.4 mph N/A   Clear
1:56 PM 50.4 °F - 17.4 °F 27% 30.22 in 10.0 mi SSW 12.7 mph - N/A   Clear
2:16 PM 50.5 °F - 18.1 °F 28% 30.21 in 10.0 mi SSW 11.5 mph - N/A   Clear
2:36 PM 50.7 °F - 18.1 °F 28% 30.21 in 10.0 mi SSW 15.0 mph 18.4 mph N/A   Clear
2:56 PM 50.9 °F - 18.0 °F 27% 30.19 in 10.0 mi South 12.7 mph 17.3 mph N/A   Clear
3:16 PM 51.8 °F - 18.1 °F 27% 30.19 in 10.0 mi South 12.7 mph 17.3 mph N/A   Clear
3:36 PM 50.5 °F - 17.4 °F 27% 30.19 in 10.0 mi SSW 12.7 mph - N/A   Clear
3:56 PM 50.4 °F - 18.0 °F 28% 30.18 in 10.0 mi South 10.4 mph 17.3 mph N/A   Clear
4:16 PM 50.0 °F - 18.3 °F 29% 30.18 in 10.0 mi SSW 12.7 mph 18.4 mph N/A   Clear
4:36 PM 48.4 °F - 18.3 °F 30% 30.18 in 10.0 mi South 12.7 mph 17.3 mph N/A   Clear
4:56 PM 47.5 °F - 18.5 °F 32% 30.18 in 10.0 mi SSW 9.2 mph - N/A   Clear
5:16 PM 46.8 °F - 19.4 °F 34% 30.18 in 10.0 mi South 6.9 mph - N/A   Clear
5:36 PM 45.1 °F 42.0 °F 19.8 °F 36% 30.18 in 10.0 mi South 5.8 mph - N/A   Clear
5:56 PM 44.1 °F 40.8 °F 20.1 °F 39% 30.18 in 10.0 mi South 5.8 mph - N/A   Clear
6:16 PM 42.8 °F 40.1 °F 20.8 °F 42% 30.17 in 10.0 mi South 4.6 mph - N/A   Clear
6:36 PM 41.4 °F 39.4 °F 20.8 °F 44% 30.17 in 10.0 mi SSE 3.5 mph - N/A   Clear
6:56 PM 39.9 °F 35.8 °F 21.2 °F 47% 30.16 in 10.0 mi SSE 5.8 mph - N/A   Clear
7:16 PM 41.2 °F 37.3 °F 21.6 °F 46% 30.17 in 10.0 mi South 5.8 mph - N/A   Clear
7:36 PM 41.2 °F 37.3 °F 21.7 °F 46% 30.16 in 10.0 mi South 5.8 mph - N/A   Clear
7:56 PM 41.4 °F 36.2 °F 21.6 °F 45% 30.16 in 10.0 mi South 8.1 mph - N/A   Clear
8:16 PM 41.4 °F 36.2 °F 21.2 °F 45% 30.16 in 10.0 mi South 8.1 mph - N/A   Clear
8:36 PM 42.1 °F 36.6 °F 21.2 °F 43% 30.15 in 10.0 mi South 9.2 mph - N/A   Clear
8:56 PM 42.3 °F 36.8 °F 21.0 °F 43% 30.15 in 10.0 mi South 9.2 mph 16.1 mph N/A   Clear
9:16 PM 42.4 °F 37.0 °F 21.4 °F 43% 30.15 in 10.0 mi South 9.2 mph - N/A   Clear
9:36 PM 41.7 °F 36.7 °F 21.7 °F 45% 30.16 in 10.0 mi South 8.1 mph - N/A   Clear
9:56 PM 41.2 °F 36.0 °F 21.6 °F 46% 30.16 in 10.0 mi SSW 8.1 mph - N/A   Clear
10:16 PM 40.3 °F 36.3 °F 21.9 °F 48% 30.17 in 10.0 mi SSW 5.8 mph - N/A   Clear
10:36 PM 39.4 °F 36.1 °F 22.1 °F 50% 30.17 in 10.0 mi SSW 4.6 mph - N/A   Clear
10:56 PM 39.4 °F 36.1 °F 22.1 °F 50% 30.17 in 10.0 mi SSW 4.6 mph - N/A   Clear
11:16 PM 37.4 °F 34.9 °F 22.1 °F 54% 30.16 in 10.0 mi South 3.5 mph - N/A   Clear
11:36 PM 36.7 °F 34.1 °F 22.3 °F 56% 30.16 in 10.0 mi South 3.5 mph - N/A   Clear
11:56 PM 35.8 °F 33.0 °F 22.8 °F 59% 30.15 in 10.0 mi South 3.5 mph - N/A   Clear